Time,TemperatureF,DewpointF,PressureIn,WindDirection,WindDirectionDegrees,WindSpeedMPH,WindSpeedGustMPH,Humidity,HourlyPrecipIn,Conditions,Clouds,dailyrainin,SoftwareType,DateUTC
2013-09-07 00:14:00,74.8,69.0,29.93,SSW,193,0.0,0.0,81,0.00,,,0.00,weatherlink.com 1.10,2013-09-07 05:14:00,
2013-09-07 00:29:00,73.8,68.0,29.93,SSW,193,0.0,0.0,82,0.00,,,0.00,weatherlink.com 1.10,2013-09-07 05:29:00,
2013-09-07 00:44:00,73.1,68.0,29.92,SSW,194,0.0,0.0,83,0.00,,,0.00,weatherlink.com 1.10,2013-09-07 05:44:00,
2013-09-07 00:59:00,72.7,67.0,29.92,SSW,198,0.0,0.0,83,0.00,,,0.00,weatherlink.com 1.10,2013-09-07 05:59:00,
2013-09-07 01:14:00,72.4,67.0,29.92,SSW,198,0.0,0.0,84,0.00,,,0.00,weatherlink.com 1.10,2013-09-07 06:14:00,
2013-09-07 01:29:00,71.6,67.0,29.93,SSW,198,0.0,0.0,86,0.00,,,0.00,weatherlink.com 1.10,2013-09-07 06:29:00,
2013-09-07 01:44:00,71.1,67.0,29.92,SSW,198,0.0,0.0,86,0.00,,,0.00,weatherlink.com 1.10,2013-09-07 06:44:00,
2013-09-07 01:59:00,70.7,67.0,29.92,SSW,198,0.0,0.0,87,0.00,,,0.00,weatherlink.com 1.10,2013-09-07 06:59:00,
2013-09-07 02:14:00,70.1,67.0,29.92,SSW,198,0.0,0.0,88,0.00,,,0.00,weatherlink.com 1.10,2013-09-07 07:14:00,
2013-09-07 02:29:00,70.0,66.0,29.92,NNW,342,0.0,0.0,88,0.00,,,0.00,weatherlink.com 1.10,2013-09-07 07:29:00,
2013-09-07 02:44:00,69.9,67.0,29.92,NNW,341,0.0,0.0,89,0.00,,,0.00,weatherlink.com 1.10,2013-09-07 07:44:00,
2013-09-07 02:59:00,69.7,66.0,29.91,NNW,341,0.0,0.0,89,0.00,,,0.00,weatherlink.com 1.10,2013-09-07 07:59:00,
2013-09-07 03:14:00,69.3,66.0,29.91,NNW,341,0.0,0.0,90,0.00,,,0.00,weatherlink.com 1.10,2013-09-07 08:14:00,
2013-09-07 03:29:00,69.1,66.0,29.91,NNW,342,0.0,0.0,90,0.00,,,0.00,weatherlink.com 1.10,2013-09-07 08:29:00,
2013-09-07 03:44:00,68.8,66.0,29.91,NNW,341,0.0,0.0,89,0.00,,,0.00,weatherlink.com 1.10,2013-09-07 08:44:00,
2013-09-07 03:59:00,68.7,66.0,29.91,NNW,341,0.0,0.0,91,0.00,,,0.00,weatherlink.com 1.10,2013-09-07 08:59:00,
2013-09-07 04:14:00,68.5,66.0,29.91,NNW,341,0.0,0.0,91,0.00,,,0.00,weatherlink.com 1.10,2013-09-07 09:14:00,
2013-09-07 04:29:00,68.1,65.0,29.91,NNW,341,0.0,0.0,91,0.00,,,0.00,weatherlink.com 1.10,2013-09-07 09:29:00,
2013-09-07 04:44:00,67.9,65.0,29.91,NNW,341,0.0,0.0,91,0.00,,,0.00,weatherlink.com 1.10,2013-09-07 09:44:00,
2013-09-07 04:59:00,67.5,65.0,29.92,NNW,341,0.0,0.0,92,0.00,,,0.00,weatherlink.com 1.10,2013-09-07 09:59:00,
2013-09-07 05:14:00,67.5,65.0,29.92,NNW,342,0.0,0.0,92,0.00,,,0.00,weatherlink.com 1.10,2013-09-07 10:14:00,
2013-09-07 05:29:00,67.1,65.0,29.92,NNW,342,0.0,0.0,92,0.00,,,0.00,weatherlink.com 1.10,2013-09-07 10:29:00,
2013-09-07 05:44:00,66.9,65.0,29.92,NNW,342,0.0,0.0,92,0.00,,,0.00,weatherlink.com 1.10,2013-09-07 10:44:00,
2013-09-07 05:59:00,66.7,65.0,29.92,NNW,341,0.0,0.0,93,0.00,,,0.00,weatherlink.com 1.10,2013-09-07 10:59:00,
2013-09-07 06:15:00,66.4,64.0,29.93,NNW,341,0.0,0.0,93,0.00,,,0.00,weatherlink.com 1.10,2013-09-07 11:15:00,
2013-09-07 06:30:00,66.2,64.0,29.93,NNW,342,0.0,0.0,93,0.00,,,0.00,weatherlink.com 1.10,2013-09-07 11:30:00,
2013-09-07 06:45:00,66.3,65.0,29.93,NNW,341,0.0,0.0,94,0.00,,,0.00,weatherlink.com 1.10,2013-09-07 11:45:00,
2013-09-07 07:00:00,66.0,64.0,29.93,NNW,342,0.0,0.0,93,0.00,,,0.00,weatherlink.com 1.10,2013-09-07 12:00:00,
2013-09-07 07:15:00,65.6,64.0,29.93,NNW,341,0.0,0.0,94,0.00,,,0.00,weatherlink.com 1.10,2013-09-07 12:15:00,
2013-09-07 07:30:00,65.8,64.0,29.94,NNW,341,0.0,0.0,94,0.00,,,0.00,weatherlink.com 1.10,2013-09-07 12:30:00,
2013-09-07 07:45:00,66.2,65.0,29.95,NNW,341,0.0,0.0,94,0.00,,,0.00,weatherlink.com 1.10,2013-09-07 12:45:00,
2013-09-07 08:00:00,67.7,66.0,29.95,NNW,340,0.0,0.0,95,0.00,,,0.00,weatherlink.com 1.10,2013-09-07 13:00:00,
2013-09-07 08:15:00,70.1,68.0,29.95,NNW,340,0.0,0.0,92,0.00,,,0.00,weatherlink.com 1.10,2013-09-07 13:15:00,
2013-09-07 08:30:00,73.5,69.0,29.95,NNW,340,0.0,0.0,86,0.00,,,0.00,weatherlink.com 1.10,2013-09-07 13:30:00,
2013-09-07 08:45:00,76.1,70.0,29.95,NNW,340,0.0,0.0,82,0.00,,,0.00,weatherlink.com 1.10,2013-09-07 13:45:00,
2013-09-07 09:00:00,78.0,73.0,29.96,NNW,340,0.0,0.0,84,0.00,,,0.00,weatherlink.com 1.10,2013-09-07 14:00:00,
2013-09-07 09:15:00,79.6,72.0,29.95,SSW,198,0.0,0.0,77,0.00,,,0.00,weatherlink.com 1.10,2013-09-07 14:15:00,
2013-09-07 09:30:00,80.4,73.0,29.95,SW,226,0.0,0.0,79,0.00,,,0.00,weatherlink.com 1.10,2013-09-07 14:30:00,
2013-09-07 09:45:00,81.7,73.0,29.95,ENE,77,0.0,0.0,74,0.00,,,0.00,weatherlink.com 1.10,2013-09-07 14:45:00,
2013-09-07 10:00:00,83.7,74.0,29.95,SSW,193,0.0,0.0,73,0.00,,,0.00,weatherlink.com 1.10,2013-09-07 15:00:00,
2013-09-07 10:15:00,81.7,72.0,29.96,NNW,335,0.0,0.0,73,0.00,,,0.00,weatherlink.com 1.10,2013-09-07 15:15:00,
2013-09-07 10:30:00,84.6,72.0,29.96,ESE,122,0.0,0.0,67,0.00,,,0.00,weatherlink.com 1.10,2013-09-07 15:30:00,
2013-09-07 10:45:00,84.9,72.0,29.96,SE,139,0.0,0.0,65,0.00,,,0.00,weatherlink.com 1.10,2013-09-07 15:45:00,
2013-09-07 11:00:00,85.4,72.0,29.96,SSE,160,0.0,0.0,64,0.00,,,0.00,weatherlink.com 1.10,2013-09-07 16:00:00,
2013-09-07 11:15:00,85.2,71.0,29.96,SW,217,0.0,0.0,63,0.00,,,0.00,weatherlink.com 1.10,2013-09-07 16:15:00,
2013-09-07 11:30:00,87.0,72.0,29.96,South,187,0.0,0.0,61,0.00,,,0.00,weatherlink.com 1.10,2013-09-07 16:30:00,
2013-09-07 11:45:00,87.4,71.0,29.95,SW,233,0.0,0.0,59,0.00,,,0.00,weatherlink.com 1.10,2013-09-07 16:45:00,
2013-09-07 12:00:00,89.5,71.0,29.95,NE,34,0.0,0.0,55,0.00,,,0.00,weatherlink.com 1.10,2013-09-07 17:00:00,
2013-09-07 12:15:00,89.0,70.0,29.95,SE,146,0.0,0.0,54,0.00,,,0.00,weatherlink.com 1.10,2013-09-07 17:15:00,
2013-09-07 12:30:00,89.3,72.0,29.94,SW,215,0.0,0.0,57,0.00,,,0.00,weatherlink.com 1.10,2013-09-07 17:30:00,
2013-09-07 12:45:00,90.7,70.0,29.94,SSE,158,0.0,0.0,50,0.00,,,0.00,weatherlink.com 1.10,2013-09-07 17:45:00,
2013-09-07 13:00:00,88.3,68.0,29.93,SW,236,0.0,0.0,52,0.00,,,0.00,weatherlink.com 1.10,2013-09-07 18:00:00,
2013-09-07 13:15:00,88.5,69.0,29.92,South,187,0.0,0.0,52,0.00,,,0.00,weatherlink.com 1.10,2013-09-07 18:15:00,
2013-09-07 13:30:00,90.8,70.0,29.92,SSW,196,0.0,0.0,50,0.00,,,0.00,weatherlink.com 1.10,2013-09-07 18:30:00,
2013-09-07 13:45:00,92.3,69.0,29.91,NE,39,0.0,0.0,46,0.00,,,0.00,weatherlink.com 1.10,2013-09-07 18:45:00,
2013-09-07 14:00:00,92.4,69.0,29.91,NNE,25,0.0,0.0,46,0.00,,,0.00,weatherlink.com 1.10,2013-09-07 19:00:00,
2013-09-07 14:15:00,90.9,68.0,29.90,SSW,211,0.0,0.0,47,0.00,,,0.00,weatherlink.com 1.10,2013-09-07 19:15:00,
2013-09-07 14:30:00,89.3,68.0,29.89,North,350,0.0,0.0,49,0.00,,,0.00,weatherlink.com 1.10,2013-09-07 19:30:00,
2013-09-07 14:45:00,88.7,68.0,29.88,NE,44,0.0,0.0,50,0.00,,,0.00,weatherlink.com 1.10,2013-09-07 19:45:00,
2013-09-07 15:00:00,88.2,67.0,29.88,ENE,65,0.0,0.0,50,0.00,,,0.00,weatherlink.com 1.10,2013-09-07 20:00:00,
2013-09-07 15:15:00,88.6,68.0,29.86,SE,134,0.0,0.0,50,0.00,,,0.00,weatherlink.com 1.10,2013-09-07 20:15:00,
2013-09-07 15:31:00,90.3,66.0,29.85,NE,51,0.0,0.0,45,0.00,,,0.00,weatherlink.com 1.10,2013-09-07 20:31:00,
2013-09-07 15:46:00,92.8,67.0,29.84,NNW,343,0.0,0.0,43,0.00,,,0.00,weatherlink.com 1.10,2013-09-07 20:46:00,
2013-09-07 16:01:00,93.5,66.0,29.84,ENE,62,0.0,0.0,40,0.00,,,0.00,weatherlink.com 1.10,2013-09-07 21:01:00,
2013-09-07 16:16:00,94.1,66.0,29.83,NNE,22,0.0,0.0,39,0.00,,,0.00,weatherlink.com 1.10,2013-09-07 21:16:00,
2013-09-07 16:31:00,93.3,66.0,29.83,NE,39,0.0,0.0,40,0.00,,,0.00,weatherlink.com 1.10,2013-09-07 21:31:00,
2013-09-07 16:46:00,93.0,65.0,29.82,SSW,195,0.0,0.0,40,0.00,,,0.00,weatherlink.com 1.10,2013-09-07 21:46:00,
2013-09-07 17:01:00,92.9,65.0,29.82,SE,132,0.0,0.0,40,0.00,,,0.00,weatherlink.com 1.10,2013-09-07 22:01:00,
2013-09-07 17:16:00,91.5,65.0,29.82,SSW,194,0.0,0.0,41,0.00,,,0.00,weatherlink.com 1.10,2013-09-07 22:16:00,
2013-09-07 17:31:00,93.0,65.0,29.82,NE,35,0.0,0.0,39,0.00,,,0.00,weatherlink.com 1.10,2013-09-07 22:31:00,
2013-09-07 17:46:00,93.3,65.0,29.82,SSE,154,0.0,0.0,39,0.00,,,0.00,weatherlink.com 1.10,2013-09-07 22:46:00,
2013-09-07 18:01:00,92.3,64.0,29.82,ESE,118,0.0,0.0,39,0.00,,,0.00,weatherlink.com 1.10,2013-09-07 23:01:00,
2013-09-07 18:16:00,93.2,65.0,29.82,NE,44,0.0,0.0,39,0.00,,,0.00,weatherlink.com 1.10,2013-09-07 23:16:00,
2013-09-07 18:31:00,92.7,64.0,29.81,ESE,114,0.0,0.0,39,0.00,,,0.00,weatherlink.com 1.10,2013-09-07 23:31:00,
2013-09-07 18:46:00,90.5,64.0,29.82,East,99,0.0,0.0,42,0.00,,,0.00,weatherlink.com 1.10,2013-09-07 23:46:00,
2013-09-07 19:01:00,89.0,67.0,29.83,ESE,120,0.0,0.0,49,0.00,,,0.00,weatherlink.com 1.10,2013-09-08 00:01:00,
2013-09-07 19:16:00,85.0,70.0,29.84,SW,233,0.0,0.0,60,0.00,,,0.00,weatherlink.com 1.10,2013-09-08 00:16:00,
2013-09-07 19:31:00,81.2,71.0,29.84,East,87,0.0,0.0,71,0.00,,,0.00,weatherlink.com 1.10,2013-09-08 00:31:00,
2013-09-07 19:46:00,79.4,68.0,29.86,South,187,0.0,0.0,69,0.00,,,0.00,weatherlink.com 1.10,2013-09-08 00:46:00,
2013-09-07 20:01:00,78.7,68.0,29.87,SW,221,0.0,0.0,70,0.00,,,0.00,weatherlink.com 1.10,2013-09-08 01:01:00,
2013-09-07 20:16:00,78.5,68.0,29.87,SW,233,0.0,0.0,69,0.00,,,0.00,weatherlink.com 1.10,2013-09-08 01:16:00,
2013-09-07 20:31:00,78.3,68.0,29.88,SE,141,0.0,0.0,70,0.00,,,0.00,weatherlink.com 1.10,2013-09-08 01:31:00,
2013-09-07 20:46:00,77.9,68.0,29.88,SSE,153,0.0,0.0,71,0.00,,,0.00,weatherlink.com 1.10,2013-09-08 01:46:00,
2013-09-07 21:01:00,77.6,68.0,29.88,SSW,203,0.0,0.0,71,0.00,,,0.00,weatherlink.com 1.10,2013-09-08 02:01:00,
2013-09-07 21:16:00,77.3,68.0,29.88,SW,226,0.0,0.0,72,0.00,,,0.00,weatherlink.com 1.10,2013-09-08 02:16:00,
2013-09-07 21:31:00,76.9,68.0,29.88,SSW,198,0.0,0.0,73,0.00,,,0.00,weatherlink.com 1.10,2013-09-08 02:31:00,
2013-09-07 21:46:00,76.8,68.0,29.88,SSW,205,0.0,0.0,74,0.00,,,0.00,weatherlink.com 1.10,2013-09-08 02:46:00,
2013-09-07 22:01:00,76.5,68.0,29.89,SSE,156,0.0,0.0,75,0.00,,,0.00,weatherlink.com 1.10,2013-09-08 03:01:00,
2013-09-07 22:16:00,76.2,68.0,29.89,South,188,0.0,0.0,75,0.00,,,0.00,weatherlink.com 1.10,2013-09-08 03:16:00,
2013-09-07 22:31:00,75.6,68.0,29.89,SW,226,0.0,0.0,76,0.00,,,0.00,weatherlink.com 1.10,2013-09-08 03:31:00,
2013-09-07 22:46:00,75.1,67.0,29.89,SSE,159,0.0,0.0,77,0.00,,,0.00,weatherlink.com 1.10,2013-09-08 03:46:00,
2013-09-07 23:01:00,74.7,67.0,29.90,South,169,0.0,0.0,78,0.00,,,0.00,weatherlink.com 1.10,2013-09-08 04:01:00,
2013-09-07 23:16:00,73.6,67.0,29.90,South,169,0.0,0.0,80,0.00,,,0.00,weatherlink.com 1.10,2013-09-08 04:16:00,
2013-09-07 23:31:00,72.6,67.0,29.89,SW,218,0.0,0.0,82,0.00,,,0.00,weatherlink.com 1.10,2013-09-08 04:31:00,
2013-09-07 23:46:00,72.0,66.0,29.89,SW,219,0.0,0.0,82,0.00,,,0.00,weatherlink.com 1.10,2013-09-08 04:46:00,